Theta_e
335 330 329 330 332 331 330 332 331 330 332 330 331 329 324 323 324 327 330 329 331 332 332 333 331 331 331 330 330 329 330 331 330 331 333 333 334 334 333 332 333 331 329 327 327 326 325 324 322 322 320 319 319 317 316 316 315 316 315 315 315 315 316 315 315 318 318 317 318 319 318 318 318 317 316 317 316 315 315 314 313 313 312 311 311 312
330 328 328 330 330 329 328 331 330 330 332 330 333 331 324 322 324 327 329 329 332 331 330 332 331 331 332 330 330 329 331 331 330 332 333 333 333 333 333 333 333 331 329 327 326 326 325 324 323 323 320 318 318 317 316 316 315 315 315 315 316 315 316 316 315 317 318 317 317 318 318 318 318 317 316 316 316 315 315 314 313 313 312 311 312 312
329 328 329 329 328 330 330 330 329 329 331 328 329 327 322 323 326 327 329 328 331 330 329 332 332 332 332 330 330 331 331 330 330 331 332 333 333 333 333 334 333 331 329 327 327 325 324 324 324 323 321 319 318 317 316 316 315 315 314 314 316 315 315 316 316 316 318 317 317 318 318 317 317 317 316 316 315 314 314 313 312 313 312 311 312 312
328 330 329 329 330 333 332 329 329 329 329 328 326 323 320 325 326 324 326 329 331 329 329 334 333 332 333 332 331 331 330 330 330 330 331 332 333 333 332 333 333 332 330 328 326 326 325 324 324 323 322 320 319 318 317 316 315 315 315 315 316 316 314 315 316 316 317 317 317 317 318 317 317 317 316 316 315 314 314 313 312 312 312 312 312 311
328 328 327 330 330 332 331 329 330 328 326 328 329 325 323 326 327 324 327 330 329 328 331 332 328 328 332 332 331 331 330 330 330 330 331 332 332 332 331 331 332 331 331 328 327 327 326 325 324 323 322 320 319 318 317 317 316 314 314 315 315 316 315 315 316 316 316 317 316 317 317 317 317 317 316 315 315 314 314 314 312 312 312 311 311 311
328 327 329 330 329 330 330 329 330 327 324 326 328 330 328 328 328 327 330 331 327 327 330 330 326 327 330 331 332 331 331 332 331 331 331 331 331 332 332 331 331 331 331 329 328 327 327 325 324 323 321 319 318 318 318 317 316 314 314 315 316 316 315 314 315 315 315 316 316 316 317 317 317 316 315 315 314 314 314 313 312 312 312 311 310 310
328 327 330 331 329 330 329 329 329 328 326 323 325 329 330 334 335 330 329 329 326 326 329 330 328 326 326 329 333 331 330 332 331 331 331 331 332 331 332 332 330 331 331 329 328 327 326 326 325 323 321 319 318 317 318 317 316 314 315 315 316 316 315 314 315 315 315 316 316 316 316 316 316 315 315 314 313 313 313 313 312 311 311 311 310 310
328 327 329 331 329 329 329 327 328 329 328 326 328 329 331 338 337 333 333 332 327 328 330 329 329 327 324 327 332 331 330 332 331 330 331 330 331 331 331 331 330 330 330 329 328 327 327 326 325 323 320 319 318 318 318 317 316 315 315 315 315 316 315 314 315 315 315 316 316 316 315 315 315 314 314 313 312 312 313 312 311 311 311 310 310 309
327 326 328 331 330 329 328 328 329 328 329 329 328 329 331 336 333 332 338 336 330 330 331 328 329 328 324 326 330 330 328 331 331 330 331 330 331 331 331 330 330 329 329 328 327 327 327 326 324 322 321 320 319 318 317 316 315 314 315 315 315 315 315 314 315 315 315 315 316 315 315 314 314 313 313 312 311 311 312 311 310 310 310 309 309 309
325 325 328 329 329 329 327 328 329 328 330 329 329 330 329 332 333 333 337 334 331 331 328 326 328 326 323 322 326 328 327 330 332 330 330 330 330 331 331 329 328 328 328 327 327 327 327 326 324 322 321 320 319 319 317 315 314 314 315 316 315 315 315 315 315 315 315 315 315 315 314 313 312 312 312 312 311 311 311 311 310 310 309 309 309 308
324 324 327 327 328 329 328 328 327 328 328 329 330 330 328 329 332 334 333 332 330 329 326 324 324 326 325 322 323 327 327 330 331 330 329 330 330 330 330 328 327 327 327 327 327 327 326 325 323 322 322 321 320 319 317 314 313 313 315 316 315 314 315 315 315 314 314 314 314 314 314 313 312 312 312 312 311 311 311 310 310 309 309 309 308 308
326 327 327 326 325 327 329 328 328 328 327 329 331 329 327 327 328 329 328 328 331 333 331 327 325 327 327 326 327 329 328 329 330 329 329 329 330 330 329 328 327 327 327 326 327 327 327 326 324 323 322 321 321 318 316 314 313 313 314 315 314 314 314 315 315 314 314 314 314 313 313 312 312 311 311 311 311 311 310 310 309 309 309 308 308 308
324 327 327 326 325 327 329 327 327 328 329 331 329 326 326 324 322 326 324 323 331 336 334 332 329 325 326 328 331 328 326 329 329 328 329 330 330 330 329 328 327 327 327 326 327 328 328 327 325 324 323 322 321 319 317 314 313 314 314 315 314 314 315 315 314 314 313 313 313 313 312 311 311 311 311 311 311 310 310 309 309 308 308 308 307 308
321 328 329 324 325 327 327 326 324 325 331 334 328 325 330 327 323 328 326 321 330 333 331 332 327 324 328 333 329 327 327 328 329 328 329 330 331 331 329 327 327 327 326 328 329 328 328 327 326 324 323 323 321 319 317 314 314 314 314 314 314 313 314 315 314 314 313 313 313 312 312 311 311 311 311 310 310 310 309 309 309 308 308 308 307 307
318 327 332 323 323 327 326 327 325 324 333 336 331 331 332 330 327 331 327 321 327 329 327 331 328 325 330 334 325 327 328 326 329 328 329 331 331 330 329 328 327 327 328 329 329 328 327 327 326 324 323 323 321 318 316 315 315 315 313 313 314 313 314 314 314 314 313 312 312 312 311 311 310 311 311 310 310 310 309 309 308 308 307 307 307 307
315 320 328 322 323 326 324 328 327 324 330 332 332 333 331 329 329 331 329 328 333 330 324 330 332 327 330 332 327 330 328 326 330 328 329 331 330 330 330 329 328 328 329 329 329 328 328 328 325 324 323 322 320 318 316 315 314 314 313 313 314 314 314 314 313 313 313 312 312 312 311 310 310 310 310 310 309 309 309 308 308 308 307 307 307 307
313 314 323 324 323 325 324 326 327 323 325 328 328 328 329 327 328 327 326 331 337 331 323 326 328 325 328 331 330 330 328 328 329 329 329 330 331 331 331 331 328 328 329 329 328 328 328 328 325 324 323 322 321 318 316 314 313 313 313 313 313 314 314 314 313 312 312 312 312 311 311 310 310 309 309 310 309 309 309 309 308 308 307 307 307 307
316 314 322 325 322 325 325 325 327 326 324 324 323 323 326 326 326 326 325 327 333 330 323 323 322 321 326 329 330 332 332 330 329 329 330 330 331 331 331 332 329 328 329 329 328 329 329 328 325 324 323 322 321 318 316 314 313 313 313 312 313 313 313 313 313 312 312 312 312 311 311 310 309 309 309 309 309 309 309 309 308 307 307 307 307 307
319 313 319 324 322 325 326 323 323 325 325 325 324 323 323 321 320 324 323 323 329 332 328 325 321 320 322 324 328 331 331 331 332 330 330 331 331 331 331 332 330 330 331 329 328 329 329 327 325 323 323 322 320 318 316 315 314 313 312 312 312 312 313 312 312 312 312 312 312 311 310 310 309 309 309 309 309 309 309 308 308 308 307 307 307 306
323 316 317 326 325 324 324 321 320 323 327 325 325 326 326 322 319 322 322 320 327 332 330 325 322 320 322 326 333 336 332 331 333 331 331 331 331 331 331 331 330 331 332 330 329 328 328 327 324 323 322 321 319 318 316 315 314 314 312 312 312 312 312 312 312 312 312 312 312 311 310 309 309 309 309 309 309 308 308 308 308 308 307 307 306 306
325 319 315 322 324 321 320 321 322 323 326 325 325 327 330 328 322 321 320 319 325 328 326 324 321 320 324 331 338 340 334 332 333 333 331 331 331 332 332 332 333 332 332 332 330 328 329 326 324 323 322 320 319 317 315 314 313 313 311 312 312 312 311 311 311 311 312 312 312 311 310 309 309 309 309 308 308 308 308 308 307 308 307 306 306 306
323 320 315 316 317 316 318 323 325 325 326 324 323 324 326 326 322 319 319 318 319 320 320 321 320 320 325 329 334 335 332 334 336 334 332 332 331 332 334 335 335 334 333 332 331 329 328 326 324 323 321 319 318 316 314 313 311 310 310 310 311 311 311 310 311 311 312 312 312 311 310 309 309 309 308 308 308 308 308 307 307 307 307 306 306 306
325 322 316 313 316 319 322 324 325 325 325 322 321 323 323 322 320 317 318 318 316 316 317 319 322 326 329 327 330 330 331 334 335 333 333 333 332 333 335 334 334 334 333 332 331 330 328 326 323 322 320 318 317 316 314 311 310 309 309 309 310 310 310 310 310 311 311 312 311 311 310 309 309 308 308 308 307 307 307 307 307 307 306 306 306 306
327 323 316 313 317 320 322 325 326 325 325 322 321 323 322 321 321 321 321 320 317 317 319 322 324 328 329 330 331 329 330 332 332 332 334 334 334 334 334 333 334 334 333 332 331 330 328 325 323 321 320 318 317 316 314 311 310 310 309 309 310 310 310 310 311 311 311 311 310 310 309 309 308 307 307 307 307 307 307 307 307 307 306 306 306 306
323 321 317 313 315 316 318 322 324 322 323 323 323 324 324 323 324 324 323 322 320 318 320 323 323 324 328 333 332 329 329 329 330 332 334 335 336 335 333 333 334 334 334 333 332 330 327 325 323 321 319 318 317 316 314 312 310 310 310 310 310 310 310 310 311 311 310 310 310 309 309 308 308 307 307 307 307 306 307 307 307 307 306 306 306 306
322 323 320 314 313 315 316 317 318 319 321 323 323 323 324 323 323 323 319 318 319 318 318 320 321 323 330 334 330 330 331 328 329 333 334 335 334 334 335 335 335 335 334 333 333 330 328 326 323 321 319 318 317 317 315 312 310 310 310 310 310 311 310 310 310 310 310 309 309 308 308 307 307 307 307 306 306 306 307 307 307 306 306 305 305 305
323 324 322 318 315 316 316 318 321 322 319 319 320 321 323 323 325 324 319 316 319 318 317 321 322 323 329 334 330 331 332 329 329 332 334 335 335 336 337 335 334 334 333 333 333 330 329 327 324 321 320 319 318 317 315 312 310 310 310 311 311 311 310 310 310 310 309 308 308 307 307 307 306 306 306 306 306 306 306 307 307 306 306 305 305 305
322 319 321 321 318 319 321 321 324 323 320 318 319 320 321 322 324 323 319 319 321 318 317 324 326 322 325 332 331 332 333 331 330 332 333 335 334 334 334 333 334 334 333 333 333 330 329 328 326 323 321 319 318 317 315 312 310 309 310 310 310 310 310 310 309 309 309 308 307 306 306 306 306 306 305 305 305 306 306 306 307 306 305 305 305 305
322 316 321 322 319 322 324 323 323 323 322 322 321 320 321 322 322 321 321 322 323 320 319 325 328 323 325 331 332 333 333 331 332 334 335 335 333 332 333 333 333 333 333 333 332 330 329 327 325 323 321 319 318 316 314 312 310 310 309 309 310 310 310 310 309 308 308 308 307 306 306 305 305 305 304 304 305 305 306 306 306 306 305 305 305 305
324 320 323 324 320 321 323 324 324 323 321 321 321 322 323 325 325 323 323 325 328 325 325 328 328 326 329 332 331 332 333 332 333 334 333 334 333 332 333 333 333 332 332 333 332 330 329 327 324 323 321 319 318 316 314 312 310 310 310 310 310 310 310 310 309 308 307 307 306 305 305 305 305 304 304 304 304 305 305 306 306 306 306 305 304 304
325 323 328 326 321 321 323 323 323 323 320 319 320 323 324 325 326 324 325 328 327 325 326 328 325 325 331 335 334 334 333 331 331 332 333 333 334 334 334 333 332 330 330 332 332 330 328 326 324 323 321 319 318 316 314 312 310 309 309 310 310 310 310 309 308 308 307 307 306 305 305 304 304 304 303 303 304 305 305 305 306 306 305 305 304 304
326 325 327 325 319 318 322 323 322 324 321 318 320 323 322 323 324 324 326 328 326 326 327 324 320 323 330 333 333 334 332 330 331 333 335 335 334 334 334 332 331 330 330 332 332 330 328 326 324 323 321 319 318 316 314 312 310 309 309 310 310 310 309 308 308 307 307 306 305 304 304 304 303 303 303 303 304 304 305 305 305 305 305 305 304 304
328 326 325 322 317 316 322 324 322 322 320 318 321 324 324 324 325 324 326 327 328 329 326 321 322 327 331 330 331 333 331 329 330 332 335 337 338 339 336 332 330 330 330 332 332 331 329 326 325 324 321 319 318 316 314 312 310 310 310 310 310 310 309 308 308 307 306 305 305 304 304 303 303 303 302 303 303 304 305 305 305 305 305 305 304 304
328 327 326 324 317 316 322 325 323 322 319 320 326 328 325 325 325 324 325 326 326 326 326 325 327 330 332 333 334 333 331 330 330 331 334 338 341 342 338 333 331 330 330 332 331 331 330 327 325 324 321 319 318 316 314 312 310 310 310 310 309 309 308 308 307 306 306 305 304 304 304 303 303 302 302 302 303 304 304 304 304 304 304 304 304 304
330 328 327 325 319 317 320 324 324 323 322 324 330 330 326 326 325 325 326 325 324 325 325 327 328 328 331 333 332 332 331 331 330 330 332 336 338 340 338 335 333 332 331 332 332 332 331 328 326 324 321 319 318 315 313 311 311 310 310 309 309 309 308 308 307 306 306 305 304 304 303 303 303 302 302 302 303 303 303 304 304 304 304 304 303 303
331 329 326 323 321 319 319 320 322 324 324 327 332 329 326 328 327 326 325 325 325 325 325 327 327 329 332 331 329 331 332 330 330 329 332 335 336 337 337 336 334 333 333 333 334 333 331 328 326 324 321 319 317 315 313 311 310 310 309 309 309 309 308 307 306 306 305 305 304 304 304 303 303 302 302 302 302 303 303 303 303 303 303 303 303 302
330 329 326 323 322 320 318 317 319 320 321 326 330 330 330 330 329 329 327 326 327 326 326 329 328 327 329 328 327 330 329 329 331 331 331 332 332 332 334 335 334 334 333 333 333 333 330 328 326 323 320 318 316 315 312 310 309 309 309 309 308 308 308 307 306 306 305 305 304 304 303 303 303 302 302 302 302 303 302 302 302 302 302 302 302 302
328 331 330 327 325 321 318 317 318 319 319 322 326 331 333 331 331 331 327 324 328 328 326 327 328 329 331 330 328 328 328 329 330 331 331 331 330 331 334 334 333 333 332 332 333 332 329 327 324 321 318 317 316 314 312 310 309 309 309 308 308 308 307 306 306 305 305 304 304 303 303 302 302 302 302 302 302 302 302 302 302 302 302 301 301 301
329 334 333 328 325 322 319 318 319 318 318 323 327 332 332 330 330 331 325 322 328 333 329 326 327 331 333 333 330 328 328 329 329 331 335 334 332 333 334 334 333 332 332 332 332 330 328 325 322 319 318 317 315 313 311 309 309 309 308 308 308 307 306 305 305 305 304 304 304 303 303 302 302 302 302 302 302 301 301 301 300 301 301 301 301 300
331 338 336 328 323 323 322 321 319 317 320 326 330 330 330 328 330 330 324 322 329 334 333 330 329 330 332 333 331 328 328 330 329 332 336 335 332 333 335 334 333 333 332 333 331 328 325 323 320 319 317 316 314 312 310 309 309 309 308 307 307 307 306 305 304 304 304 304 303 303 303 302 302 302 301 301 301 301 301 300 300 300 300 300 300 300
327 332 332 327 323 321 321 321 320 320 324 329 329 328 329 330 331 328 324 327 333 335 334 333 331 330 332 331 329 328 330 333 333 334 337 334 331 332 334 334 334 334 333 332 329 326 323 321 319 318 317 315 313 311 310 309 309 309 308 307 307 306 305 304 304 304 303 303 303 302 302 302 302 301 301 301 301 301 301 300 299 299 299 299 299 298
324 325 325 324 322 320 320 323 323 323 328 333 332 332 333 331 328 328 330 335 337 334 332 333 330 330 333 332 331 333 333 332 331 332 334 334 333 334 336 335 334 334 332 329 326 324 322 320 319 318 316 314 313 311 310 310 309 308 308 308 307 306 305 304 304 303 303 303 302 302 302 302 301 301 301 301 301 301 301 300 300 299 299 298 298 298
325 324 321 321 322 321 323 327 326 325 330 334 332 333 334 330 328 331 334 335 333 331 331 332 329 330 333 333 335 337 336 333 333 334 335 337 337 336 336 335 334 333 329 326 324 323 321 320 319 317 316 314 312 311 310 310 309 309 308 307 306 305 304 304 303 303 303 302 302 302 301 301 301 301 301 301 301 301 301 300 300 300 299 298 298 298
328 326 322 322 323 321 320 324 327 327 330 332 332 336 341 339 335 337 337 334 333 331 330 330 329 331 333 333 334 336 336 337 339 339 337 338 338 336 335 335 333 330 327 325 324 322 321 320 318 317 315 313 312 311 311 310 309 309 308 307 305 304 304 303 303 303 302 302 301 301 301 301 301 301 301 301 301 301 301 300 300 299 299 298 298 298
327 330 328 327 327 324 322 325 327 329 331 332 332 338 343 341 337 338 336 333 333 332 329 328 330 332 334 334 334 336 338 341 342 340 339 339 339 336 335 334 331 328 327 325 323 322 321 319 318 316 315 313 313 312 311 310 310 309 308 306 304 304 303 303 303 303 302 301 301 301 301 301 301 301 301 301 301 301 301 300 299 299 299 298 298 298
327 331 332 330 330 329 328 328 329 329 330 330 330 333 336 335 334 336 336 333 332 332 330 329 330 333 335 334 333 334 336 338 340 340 339 339 338 337 335 333 330 328 327 325 323 321 320 319 317 316 315 314 313 312 312 311 310 308 307 305 304 303 303 303 303 302 301 301 301 301 301 301 301 301 301 300 300 300 300 300 300 300 299 299 298 297
327 329 329 329 329 330 330 329 329 329 329 330 329 330 332 331 331 333 335 335 336 336 334 334 334 334 334 333 333 334 335 336 337 338 339 339 337 336 335 332 329 329 326 324 323 321 320 318 317 316 315 315 314 313 312 311 310 308 306 304 304 303 303 303 303 302 301 301 301 301 301 301 301 301 301 300 299 298 298 299 299 300 300 299 298 297
328 328 328 328 328 329 329 328 328 328 329 328 327 328 329 329 329 332 334 335 337 338 337 339 340 338 335 332 333 335 335 336 336 336 337 337 337 334 333 331 330 329 326 324 323 321 320 318 317 316 316 315 314 313 312 311 309 307 305 304 304 304 303 303 302 302 302 301 301 301 301 300 300 301 301 299 297 296 296 295 296 297 297 297 297 297
327 327 328 327 327 328 327 327 329 329 329 329 330 329 331 331 331 332 333 333 335 340 343 345 343 339 337 336 336 337 336 334 335 334 333 334 335 333 331 330 330 328 326 325 323 321 320 318 317 317 316 315 315 314 313 311 309 306 305 305 304 304 303 303 302 302 302 301 301 301 300 300 301 302 300 297 295 294 294 293 294 295 295 294 294 295
326 327 326 326 327 328 327 327 331 332 330 330 330 330 332 333 332 332 331 330 332 338 343 343 339 336 336 336 336 336 336 335 333 333 331 332 333 332 330 330 329 327 326 325 323 321 320 319 317 317 317 316 315 314 313 311 308 306 305 305 305 304 303 303 303 302 301 301 301 300 300 300 302 302 299 296 293 292 291 290 291 292 292 291 291 291
326 326 326 327 328 329 328 327 330 331 330 330 330 330 331 331 331 331 330 328 329 333 337 338 339 340 341 338 334 334 337 337 333 331 333 333 332 332 330 330 328 327 326 324 323 322 321 319 318 318 317 316 315 314 313 311 307 306 306 306 305 305 304 303 303 302 301 302 301 300 300 301 302 300 298 295 292 290 289 288 288 289 289 288 288 288
Wind_Speed
2 3 2 3 5 6 10 13 8 2 8 8 5 4 5 6 7 9 8 8 6 4 6 6 7 11 11 11 10 9 8 7 8 7 6 6 6 6 7 9 9 8 9 10 10 10 10 11 10 10 10 10 10 12 13 12 13 13 14 14 14 15 15 16 17 15 14 14 14 13 13 13 12 12 12 12 13 13 13 15 15 15 18 19 18 19
3 3 3 5 3 1 4 4 3 4 6 6 4 1 3 7 8 9 8 10 7 2 6 9 8 9 9 10 10 9 8 6 6 6 6 7 6 6 7 10 10 8 9 9 9 9 10 11 10 9 9 10 11 12 12 12 12 12 14 14 13 14 14 14 16 15 13 14 14 13 12 12 11 11 12 12 12 14 13 15 16 16 18 18 18 19
3 2 3 3 7 8 6 6 6 7 7 5 3 1 4 5 6 9 8 9 7 1 4 7 6 7 8 8 9 9 7 5 6 6 6 7 6 7 8 9 10 9 8 8 8 8 9 10 10 9 8 8 10 11 11 11 11 11 13 14 12 13 14 14 15 15 14 13 14 13 12 11 10 10 11 11 12 13 14 15 16 16 17 18 18 19
2 4 8 8 11 10 7 5 4 5 5 4 3 3 5 3 1 5 6 7 6 2 4 6 2 6 8 8 7 8 8 6 8 8 7 7 6 7 9 10 10 9 8 8 8 8 8 9 9 8 7 6 9 9 10 10 11 11 12 13 12 12 13 14 15 15 14 13 14 13 11 10 9 9 10 11 12 14 14 15 18 17 17 18 18 18
3 7 13 14 12 8 6 5 3 2 2 3 2 2 5 4 1 4 7 6 3 2 6 6 1 4 6 8 7 7 8 8 8 8 8 8 7 7 9 10 10 9 8 7 8 8 7 9 9 8 6 6 8 8 8 9 10 11 11 12 11 11 13 14 14 15 14 13 14 14 12 11 10 10 12 13 14 15 16 16 19 18 17 18 18 18
4 8 11 9 6 4 4 5 5 4 2 3 3 5 5 7 4 7 9 5 2 1 4 5 2 2 5 7 7 7 8 7 7 8 8 9 8 8 8 9 9 10 8 7 8 8 8 9 9 7 6 7 8 7 7 8 9 10 10 11 11 11 12 14 14 15 14 13 14 14 13 12 12 12 13 14 15 16 16 16 18 18 17 18 18 18
3 7 10 6 5 5 3 3 5 5 3 1 6 6 7 12 10 7 9 3 1 2 2 1 1 2 4 6 7 8 8 8 8 8 8 9 9 8 8 8 8 9 8 7 8 9 8 7 8 8 7 7 7 7 7 6 8 9 10 11 11 11 12 13 14 14 14 13 13 14 13 13 12 13 14 15 16 15 16 16 17 17 16 17 19 19
1 7 10 5 5 5 3 2 4 5 3 3 8 7 8 19 13 7 7 3 2 4 2 1 0 1 2 5 9 9 8 9 8 8 8 8 9 9 9 9 9 10 9 7 8 9 7 6 8 9 7 7 7 6 6 6 7 8 9 10 11 11 11 13 13 13 13 13 13 13 13 13 13 13 14 15 16 15 15 17 18 17 16 17 18 19
2 5 9 3 4 4 4 4 5 5 5 4 8 7 7 16 11 3 2 1 2 3 2 1 1 0 2 5 8 9 9 9 9 9 10 10 10 11 10 11 10 11 11 9 9 9 7 6 10 10 7 6 6 5 6 6 6 7 8 10 11 11 11 12 13 13 13 12 12 12 13 14 13 13 14 14 15 16 16 17 17 17 17 17 18 19
4 6 9 2 2 1 3 4 5 3 3 6 10 7 4 8 8 5 3 1 1 1 2 5 5 1 2 6 8 8 8 8 9 9 9 11 12 11 11 11 11 10 10 9 10 10 8 9 12 11 7 7 5 4 5 6 6 7 7 9 10 11 10 11 13 13 13 12 12 12 13 14 14 14 14 14 15 16 16 16 17 17 17 18 18 19
5 4 8 4 1 1 1 5 5 1 2 6 8 6 4 3 3 3 2 2 1 1 1 5 8 3 1 4 5 6 8 8 8 9 9 11 12 12 11 10 11 9 8 9 10 10 12 14 13 10 7 6 4 3 5 6 6 7 7 8 10 10 10 10 12 13 13 13 12 13 13 13 14 14 15 15 16 16 16 16 17 17 18 18 18 19
4 1 4 4 1 4 7 6 6 2 2 4 3 3 4 2 0 1 2 2 3 2 6 5 2 4 2 1 3 4 10 12 10 9 11 12 13 12 10 10 10 9 9 10 9 10 13 14 12 10 7 5 4 4 6 6 6 7 7 8 9 9 9 10 11 12 13 13 13 13 13 13 14 15 15 16 16 16 16 16 17 17 17 18 19 20
3 6 4 5 2 4 7 0 5 2 2 4 3 3 4 2 1 2 1 2 3 2 3 7 2 4 1 5 7 4 9 11 10 10 11 13 13 12 11 10 9 10 10 10 9 11 12 11 12 10 8 6 4 4 4 5 5 6 7 7 8 9 9 9 10 11 12 13 13 13 13 13 14 15 15 15 15 16 16 16 17 17 17 18 20 21
2 6 7 3 5 5 6 1 2 2 5 6 6 5 4 4 4 4 3 3 4 3 2 4 4 1 4 2 5 6 7 7 9 11 12 13 13 12 12 10 8 9 9 8 11 11 9 10 13 11 8 6 5 4 5 5 5 5 6 6 7 8 8 9 9 11 11 12 13 12 13 13 14 14 15 15 15 15 16 16 16 17 17 18 19 19
2 3 5 3 3 5 5 3 1 1 4 4 2 1 1 3 3 2 4 4 5 2 3 2 3 2 3 3 4 7 7 5 7 12 12 12 13 11 10 10 9 8 8 9 12 11 10 12 14 12 10 7 6 5 5 5 4 5 5 6 6 7 8 9 9 10 10 11 12 12 13 13 14 14 14 14 14 15 16 16 16 17 18 18 19 18
2 1 3 1 4 4 6 6 3 3 4 5 3 1 2 2 3 2 2 5 5 2 2 1 1 1 3 4 4 5 7 6 8 13 13 12 13 10 9 10 9 9 10 11 11 10 12 14 14 12 11 9 8 6 5 5 4 5 5 5 6 6 7 8 9 10 9 10 11 12 12 13 13 14 14 14 14 14 15 16 16 16 17 17 18 17
2 2 3 5 6 5 4 5 6 3 3 4 4 2 4 2 4 1 1 6 4 1 2 1 1 0 2 3 5 1 5 7 9 13 12 12 13 11 9 9 9 9 10 10 10 10 13 15 14 12 11 10 9 8 6 6 5 5 5 5 6 6 7 7 8 9 9 9 10 11 12 13 13 14 14 14 14 14 15 15 15 16 16 17 18 18
3 2 2 6 5 4 2 3 8 8 5 3 1 2 4 1 5 2 1 3 2 1 1 1 2 3 1 1 4 4 3 7 9 11 12 12 12 10 8 9 10 9 9 10 11 11 13 15 14 12 11 11 11 9 8 6 6 6 6 5 6 6 7 7 8 9 9 9 9 10 12 13 13 14 14 14 14 14 14 15 15 16 17 17 17 17
2 2 3 2 1 6 4 4 5 8 9 6 3 3 3 1 3 1 1 2 3 2 2 1 3 2 1 1 3 4 2 5 8 10 12 12 11 9 9 9 10 9 8 9 11 10 12 15 14 13 12 12 12 10 8 7 7 6 6 5 6 6 7 8 8 9 9 9 9 10 11 12 13 13 14 14 14 14 14 15 15 16 17 16 16 17
2 3 1 2 5 2 3 4 2 2 4 5 6 5 4 2 2 1 1 3 3 1 2 2 1 1 1 1 4 5 7 6 8 9 10 11 11 9 9 9 10 10 8 8 11 10 11 14 14 14 14 13 12 10 9 8 7 7 6 5 5 6 7 8 8 9 9 9 9 10 11 12 12 13 14 14 14 14 14 15 15 15 16 16 16 17
0 1 2 3 4 3 2 1 3 2 4 4 4 2 3 3 1 1 1 3 2 3 1 2 1 1 1 4 5 4 7 2 4 7 8 10 10 9 9 8 8 9 8 8 10 10 12 14 15 14 14 13 12 10 9 8 7 7 6 5 4 4 6 8 8 8 8 8 9 9 10 11 12 13 13 14 14 14 14 15 15 16 16 16 16 17
1 2 3 3 3 4 2 4 9 9 3 3 4 2 2 3 3 2 1 0 1 1 2 2 1 1 2 0 4 3 1 5 3 4 7 9 10 9 8 9 9 9 9 9 10 10 12 15 15 15 14 13 12 10 9 8 7 7 6 5 4 4 6 8 8 8 8 8 8 9 10 11 12 13 13 14 15 15 14 15 15 16 16 16 16 17
4 3 4 5 5 5 1 2 10 12 7 8 7 3 3 3 1 1 2 2 2 2 2 1 1 0 3 5 4 4 6 3 6 5 6 7 8 9 9 10 10 9 9 9 9 11 13 15 15 15 14 13 12 10 9 8 7 7 6 6 6 6 7 8 8 7 8 8 9 9 9 10 12 12 13 14 15 15 15 15 15 16 16 16 16 17
4 3 4 6 6 5 1 2 6 7 7 8 6 4 6 5 2 4 3 2 2 4 2 3 2 2 3 5 5 2 6 7 5 0 7 6 6 8 11 11 10 10 10 10 10 11 14 15 15 15 14 13 12 11 9 8 8 8 7 7 7 7 7 7 7 7 7 8 9 9 9 10 11 12 13 14 14 15 15 15 15 16 16 16 16 17
2 3 4 5 6 5 0 4 6 6 6 6 6 6 9 10 7 5 4 2 0 2 1 3 1 3 2 3 4 3 1 5 2 4 8 7 6 7 8 9 10 10 10 11 11 12 13 14 14 14 14 13 12 11 10 9 8 8 7 8 8 7 6 6 6 6 7 8 8 9 10 10 11 12 13 14 14 15 15 15 16 15 15 16 17 18
3 4 5 5 6 5 3 3 3 2 3 5 7 8 8 11 11 6 4 3 1 2 2 2 1 4 4 4 5 3 2 2 4 6 7 5 6 8 7 7 9 10 10 12 12 11 11 12 14 15 14 13 13 11 10 10 9 9 8 8 8 8 7 7 6 6 7 7 8 9 9 10 11 12 13 13 14 14 15 15 15 15 16 16 17 17
4 4 6 8 7 6 6 5 3 4 6 7 8 10 9 10 11 7 5 4 3 4 3 2 4 5 5 7 7 3 2 1 3 7 7 4 5 8 9 8 9 9 10 11 11 10 10 10 12 14 14 14 14 12 11 11 10 10 9 9 9 8 8 7 6 6 7 7 8 9 9 10 10 11 12 13 13 14 14 15 15 15 16 16 17 17
4 6 8 11 10 10 11 9 6 7 9 10 12 11 9 9 9 6 4 5 5 5 3 2 4 4 3 9 8 4 3 4 5 7 8 7 6 8 9 10 11 11 11 11 11 12 11 9 10 13 15 15 14 13 12 11 11 11 10 10 10 9 8 7 6 7 7 7 8 8 9 9 10 11 12 12 12 13 14 15 15 15 16 16 17 17
4 7 8 11 12 12 12 11 10 10 11 12 14 13 11 11 12 9 6 7 8 6 3 2 4 7 4 5 8 6 4 4 4 5 9 10 8 9 11 12 12 12 12 13 13 12 11 9 10 13 15 16 15 14 13 12 12 11 11 11 11 9 8 7 6 7 7 7 7 8 8 9 9 10 11 12 12 13 13 14 15 15 16 17 17 16
3 5 7 9 11 12 12 11 11 13 13 13 13 14 15 16 15 10 7 9 10 7 6 4 5 8 4 6 11 9 7 6 3 4 11 12 10 10 12 13 13 12 12 14 14 12 11 11 13 14 15 16 15 14 14 13 12 12 12 12 11 10 9 7 7 7 7 7 7 7 8 8 9 10 11 11 12 12 13 14 14 15 16 16 17 17
1 3 7 8 8 10 12 12 12 13 14 13 13 13 15 17 16 12 9 9 9 9 8 7 7 7 3 10 11 9 8 7 4 4 8 9 10 12 13 13 12 12 13 14 14 13 12 13 15 16 16 16 16 15 14 13 13 13 13 12 11 10 9 8 8 7 7 7 7 7 8 8 9 10 10 11 12 12 12 13 14 15 15 16 17 17
2 3 6 6 5 7 11 13 14 15 14 12 11 10 10 11 10 8 8 8 8 8 8 6 5 4 3 7 8 8 6 4 4 5 5 5 6 10 14 13 12 12 14 15 15 15 14 14 15 17 18 18 17 16 14 14 14 14 13 13 11 11 10 9 9 8 7 7 7 7 7 8 9 10 10 11 11 12 12 12 13 14 15 15 16 16
4 3 4 5 5 6 7 10 13 14 12 8 6 6 8 8 9 10 10 10 10 7 5 5 4 3 2 1 2 6 5 2 3 5 5 7 8 6 9 10 10 12 15 16 16 16 15 15 17 18 19 19 17 16 15 15 15 14 14 14 13 12 11 10 9 8 8 7 7 7 7 8 9 9 10 10 11 11 12 13 13 13 14 14 15 16
5 5 5 5 6 6 5 5 7 8 8 5 2 4 7 8 10 11 10 10 11 9 7 6 4 3 2 3 4 4 4 1 1 5 6 8 10 5 7 8 8 10 15 17 18 17 16 17 19 20 20 19 18 17 16 16 16 16 15 15 14 13 12 10 10 9 8 8 7 7 7 7 8 9 9 10 11 11 12 13 13 13 13 13 14 15
6 5 5 4 5 6 4 3 4 7 7 4 1 4 8 9 11 12 12 12 12 11 11 10 7 6 4 3 3 4 5 2 2 3 7 10 13 11 10 10 10 11 14 17 16 16 17 20 21 21 21 20 19 18 17 17 17 17 16 15 14 13 12 11 10 9 8 8 7 7 7 7 8 8 9 9 11 11 12 12 13 13 13 13 14 15
6 6 5 4 5 5 4 5 6 6 6 5 4 4 5 6 7 8 10 10 10 9 10 10 8 3 3 5 3 4 6 2 2 1 4 9 12 11 10 11 12 11 14 16 16 17 21 24 24 23 22 22 21 19 18 18 18 18 17 16 15 14 13 12 11 10 9 8 7 7 7 7 7 8 8 9 10 11 11 12 12 12 12 13 13 14
7 5 5 3 4 5 6 6 7 8 8 7 6 4 4 6 5 3 4 6 8 9 7 9 10 4 2 4 5 6 4 1 2 2 4 7 6 6 6 7 9 12 17 19 20 23 25 27 27 25 24 24 21 20 19 19 19 18 17 16 15 14 13 12 12 10 9 8 8 7 7 7 7 7 8 9 10 10 10 11 11 11 11 12 13 13
6 4 2 1 3 6 7 7 7 7 7 7 7 6 7 5 1 4 3 5 6 7 6 6 7 4 6 4 5 7 2 3 2 3 6 8 5 3 3 6 6 16 23 23 24 26 26 27 27 26 26 25 22 20 20 20 20 19 17 16 15 15 14 13 12 11 10 9 8 8 7 7 7 7 8 9 9 10 10 10 10 10 10 11 12 13
3 5 5 2 3 5 6 6 6 5 5 7 4 4 7 5 5 4 3 5 3 4 4 4 4 4 8 5 3 3 1 3 3 1 6 9 6 5 4 8 6 19 25 26 28 28 28 29 27 26 26 24 22 22 21 21 20 19 17 16 16 15 14 13 12 12 11 10 9 9 8 8 8 8 8 8 9 9 10 10 11 11 11 11 11 12
1 4 3 2 5 5 5 6 5 5 6 5 2 7 8 8 8 5 2 2 2 3 2 3 6 5 7 2 2 1 2 3 3 1 8 10 8 7 8 6 9 20 25 27 28 30 31 30 28 27 25 24 23 23 22 21 20 19 17 17 16 15 14 14 13 13 12 11 10 10 9 9 8 8 8 8 8 9 9 10 11 11 12 12 12 11
3 3 3 5 7 8 7 6 6 5 6 5 5 8 8 8 7 2 3 1 1 4 2 3 5 3 2 2 2 2 1 2 3 1 8 10 8 7 7 8 16 22 25 27 29 30 30 28 27 27 25 25 25 23 22 21 20 19 18 17 16 16 15 15 14 14 13 12 11 11 10 9 8 8 8 8 8 9 9 9 10 11 11 12 12 12
4 3 4 6 7 7 6 4 4 4 6 8 2 6 8 6 3 2 2 0 2 4 2 1 4 4 3 1 2 4 4 4 5 2 3 7 8 7 8 13 18 21 24 28 30 30 28 27 27 26 25 25 25 23 22 21 20 19 18 17 17 17 16 16 15 15 14 13 12 12 11 9 8 8 8 8 8 8 8 8 8 9 9 10 11 11
2 1 3 5 5 6 4 3 3 4 3 6 3 4 5 4 2 3 2 1 4 6 3 2 3 1 2 3 4 4 4 5 4 2 2 4 7 8 10 14 17 21 25 28 28 28 28 27 26 26 26 25 24 22 22 22 21 20 18 18 18 17 17 17 16 15 14 14 13 12 11 9 8 8 8 8 8 8 8 8 8 8 8 8 9 10
3 3 3 4 4 5 4 4 4 3 2 1 1 3 4 4 3 6 4 2 5 6 3 2 3 1 4 4 5 4 3 4 4 3 2 3 6 7 11 14 18 22 26 27 27 28 29 28 27 26 26 25 23 23 23 23 22 20 20 19 19 19 18 18 17 16 15 15 14 12 11 9 9 8 8 8 8 8 7 7 7 8 8 8 8 9
1 1 3 5 5 5 6 6 4 3 1 1 2 1 3 4 1 3 4 2 4 5 3 4 5 1 4 6 7 5 2 4 4 3 3 4 7 8 12 16 20 24 26 26 26 28 28 28 28 27 25 24 24 23 23 23 23 22 21 21 20 20 19 18 18 17 16 15 14 12 11 10 9 8 8 7 7 7 7 7 7 8 8 8 9 9
2 3 2 4 5 6 8 9 9 9 6 2 1 4 4 1 1 2 2 2 4 6 6 7 6 1 6 8 7 6 4 4 4 1 4 6 7 9 12 17 21 24 25 25 26 27 28 28 28 27 25 24 24 24 22 22 24 24 23 22 21 20 19 19 19 18 16 15 14 13 12 11 10 8 8 7 7 7 7 7 7 9 10 10 10 10
3 4 2 3 4 4 5 8 10 11 10 7 6 8 6 3 1 1 1 3 4 4 6 9 10 6 3 7 7 6 6 6 5 4 6 6 7 9 12 16 20 23 24 25 27 28 29 28 27 26 26 25 24 23 23 22 23 24 23 22 21 20 20 20 19 18 17 16 15 13 12 11 11 9 8 8 9 10 10 8 6 7 10 11 10 10
4 7 6 5 5 4 7 11 11 11 12 11 8 6 5 5 4 3 4 4 3 2 5 7 7 7 4 1 4 5 7 8 6 4 4 5 7 9 12 16 19 21 23 25 28 29 28 27 27 26 26 25 24 23 23 22 22 23 23 22 21 21 21 20 19 18 17 16 15 14 13 12 11 10 9 10 11 12 13 12 9 9 11 11 11 11
5 4 5 7 7 7 10 12 10 8 9 9 8 6 5 5 6 6 6 5 1 4 5 4 3 2 3 6 6 3 4 6 7 5 6 7 7 9 13 18 20 22 24 26 28 29 28 27 28 28 26 25 25 24 24 23 23 23 23 22 22 22 22 21 20 19 18 17 15 14 14 13 11 10 11 12 12 12 12 12 11 12 12 11 10 9
7 7 7 7 7 7 9 9 6 5 5 6 8 10 9 8 9 9 9 7 2 4 2 3 4 1 1 5 8 5 2 5 7 7 8 9 10 12 16 20 21 22 24 26 26 27 27 28 29 28 26 25 26 25 24 24 24 24 23 23 23 23 23 23 21 19 18 17 16 15 15 13 11 11 12 12 13 13 13 12 12 12 12 11 9 8
7 7 7 7 7 7 10 11 8 6 6 6 8 10 9 9 10 10 11 10 5 3 5 5 4 2 1 3 7 8 3 3 5 8 10 11 14 18 20 22 23 23 25 26 26 26 26 28 29 28 27 26 26 26 25 25 25 24 23 23 24 24 24 23 21 20 18 17 16 17 15 13 13 13 13 13 13 14 15 15 14 13 12 12 10 10
Wind_Direction
210 259 247 260 238 221 216 223 244 138 157 163 139 152 147 116 102 117 135 133 134 152 164 170 145 143 153 156 161 168 176 163 142 145 143 143 148 140 132 130 131 129 120 117 115 109 103 93 72 59 48 39 38 34 27 23 20 18 13 11 10 7 9 9 5 4 4 5 1 359 3 358 359 14 8 3 7 2 5 4 1 4 2 2 1 2
210 282 268 267 296 161 187 222 316 47 94 92 75 201 129 98 105 117 126 131 134 163 155 155 146 139 150 154 155 160 167 163 152 158 159 157 152 141 138 135 135 134 127 129 130 121 108 97 79 67 56 41 37 34 30 23 18 19 14 11 10 7 9 9 6 4 3 5 1 355 357 353 355 12 9 1 4 3 4 5 4 4 3 3 3 5
229 311 341 329 10 29 41 35 10 17 51 78 91 78 68 80 108 114 124 131 124 157 155 144 136 137 150 151 152 161 159 156 168 175 168 159 152 146 143 137 138 139 139 141 131 110 95 91 83 74 64 48 41 35 29 24 17 17 15 11 10 9 10 8 6 5 2 4 3 357 356 355 356 11 9 2 5 5 5 8 7 4 4 6 7 8
282 12 23 25 28 28 16 27 19 10 44 42 24 64 69 51 82 115 128 126 120 164 109 78 82 147 145 149 160 159 147 164 185 176 162 156 155 153 147 142 144 145 149 145 120 104 95 92 84 73 66 55 50 39 29 25 18 17 15 10 11 11 11 9 7 7 5 6 7 3 3 3 3 10 9 5 7 7 6 9 7 5 5 8 10 10
346 26 32 28 25 32 1 356 23 8 78 82 22 38 79 95 106 73 79 81 88 183 125 100 153 158 142 158 160 150 155 177 179 160 152 153 155 154 147 146 149 146 150 143 121 118 113 99 86 75 70 58 54 46 33 27 21 19 14 11 13 12 12 11 9 8 9 12 11 8 8 8 9 11 10 8 9 8 7 8 7 5 6 11 12 10
14 32 54 47 360 15 358 353 24 7 356 129 87 26 54 106 123 88 76 53 30 169 140 135 200 163 159 172 154 151 167 172 166 159 160 156 154 157 149 149 151 145 149 147 131 124 112 104 98 90 77 58 54 48 40 33 24 23 17 13 14 15 15 12 11 12 14 16 14 9 7 7 10 11 10 10 9 7 7 7 7 5 8 13 13 11
39 50 70 68 335 350 16 19 26 11 329 14 57 22 32 58 39 53 75 50 10 23 35 109 246 166 166 173 155 160 167 164 171 172 170 162 157 163 157 155 153 146 153 151 132 121 108 107 108 100 82 63 57 48 43 38 28 27 22 19 17 17 19 15 15 17 17 19 16 11 8 7 10 11 10 10 10 8 7 9 9 7 11 15 13 13
37 70 75 55 346 347 348 58 35 10 343 16 49 19 46 66 44 17 54 32 8 23 12 114 217 198 181 170 156 165 167 166 176 178 177 170 165 170 161 159 158 151 158 156 130 119 113 116 111 103 91 75 66 51 46 38 33 33 25 23 22 20 22 18 17 20 20 20 16 12 10 9 12 13 11 11 10 10 11 14 13 11 14 14 13 14
2 62 92 55 344 355 351 63 75 18 352 28 54 21 51 95 110 128 80 31 52 39 313 259 287 270 195 168 155 167 172 171 181 183 182 177 170 168 160 164 166 159 163 158 133 124 125 125 111 103 96 85 74 61 53 41 40 42 30 26 25 24 25 21 21 23 22 21 16 13 12 12 14 15 14 13 12 14 15 17 15 14 16 14 15 15
39 55 114 122 329 291 324 32 79 50 10 32 42 22 20 91 118 137 127 102 90 252 226 196 208 233 169 160 158 174 179 178 182 182 185 180 169 165 167 170 165 161 164 148 132 133 136 122 109 106 103 89 76 66 62 50 46 44 34 29 29 27 26 24 25 25 25 23 17 15 14 13 15 16 17 16 17 17 17 18 16 15 16 15 16 12
73 94 144 152 338 148 22 11 24 44 62 40 28 13 354 16 69 114 149 156 183 302 5 175 190 213 207 155 157 179 179 181 182 180 185 176 165 167 173 170 162 161 154 138 138 143 134 121 114 116 114 98 86 74 62 54 51 46 35 32 33 31 28 28 28 28 28 25 19 16 14 14 16 16 17 19 20 18 16 18 17 15 16 15 12 11
76 121 173 134 20 56 65 17 326 296 80 64 42 10 359 330 306 140 181 141 79 11 326 305 194 130 108 215 253 201 171 175 178 178 180 171 165 166 168 171 168 157 149 148 153 146 132 124 124 126 122 115 103 77 57 49 50 48 37 34 37 35 32 32 32 32 31 27 21 18 16 17 18 19 21 21 21 19 16 17 18 17 16 13 11 13
56 295 270 132 114 61 83 40 281 273 61 43 17 344 350 338 350 6 346 70 76 147 256 295 284 116 85 237 230 187 149 165 172 170 172 165 161 163 164 175 170 150 157 165 148 134 131 132 136 135 134 132 118 94 74 58 52 50 39 34 41 40 35 35 36 36 33 29 23 18 17 18 19 22 24 23 20 19 16 15 19 19 16 13 12 15
113 294 285 183 141 106 105 162 292 46 56 31 357 340 345 343 7 13 348 41 69 128 135 309 281 44 11 273 183 123 116 149 162 156 157 156 155 160 164 171 168 152 160 154 126 126 140 143 140 139 141 140 128 109 85 67 59 55 42 36 44 45 40 37 39 39 35 30 24 19 19 19 22 24 25 23 19 19 18 17 19 20 18 17 14 15
50 340 283 256 116 130 138 128 255 282 84 76 331 335 29 324 10 9 318 21 45 76 94 354 304 78 20 341 85 102 111 124 141 138 139 146 149 158 165 166 169 156 144 134 129 137 147 139 135 137 141 140 126 102 77 67 67 61 48 43 45 46 43 40 41 41 38 33 25 21 22 21 24 25 24 24 21 21 22 20 21 21 19 18 16 15
17 303 247 179 89 183 174 138 217 255 108 137 195 168 173 182 137 199 284 42 38 358 88 50 262 171 259 305 34 107 132 126 132 129 134 146 148 161 172 166 166 151 136 140 142 142 139 134 134 139 142 138 127 110 89 79 75 66 58 53 47 47 47 44 44 43 38 35 28 23 24 23 25 26 24 23 22 23 25 23 23 22 20 20 19 16
287 288 222 175 166 201 182 150 187 186 121 173 187 220 245 165 115 245 346 76 68 336 83 153 233 292 270 343 8 344 146 136 135 132 142 151 150 166 174 163 166 153 141 147 147 138 136 136 137 142 144 141 135 124 107 95 86 76 67 61 54 48 48 47 48 46 39 37 32 26 25 24 26 27 25 23 22 24 26 26 25 23 22 22 21 17
306 315 186 208 207 162 136 211 189 168 178 222 233 257 248 107 65 5 305 79 48 335 82 125 90 51 33 54 344 304 171 145 142 141 148 149 153 170 170 160 164 156 147 148 144 139 137 136 139 146 149 144 136 129 120 115 106 91 75 67 61 52 48 47 49 49 44 40 34 28 26 25 27 28 26 24 25 25 26 26 25 24 25 24 22 18
301 301 157 211 325 127 156 260 217 184 199 228 291 293 240 225 46 30 238 38 33 0 346 355 125 105 220 204 0 320 235 164 153 153 155 153 160 172 168 165 164 156 153 146 139 138 136 138 144 150 148 142 137 134 132 131 122 109 98 85 71 62 57 51 49 52 48 43 39 31 27 26 28 31 29 26 27 27 27 26 24 24 26 25 23 17
339 323 145 341 347 78 186 250 256 194 204 239 279 297 296 305 28 47 330 42 69 160 318 300 169 104 256 113 46 325 267 207 164 163 162 157 164 170 169 174 167 157 155 145 141 142 140 144 148 150 147 143 144 143 139 136 133 129 124 107 90 80 72 62 55 54 50 45 42 35 30 29 30 33 31 28 29 30 28 26 25 25 25 25 25 18
24 245 264 288 299 291 258 291 295 228 172 217 260 317 352 326 312 268 37 62 128 178 188 259 209 100 230 148 129 236 263 257 143 169 166 156 162 170 171 169 163 157 154 148 149 149 146 147 148 150 149 147 150 148 142 142 143 140 130 120 119 105 90 79 66 58 54 48 43 37 33 31 31 34 33 30 31 31 30 28 26 26 26 27 27 19
323 242 283 286 261 272 352 16 298 269 228 263 264 182 186 234 269 310 343 2 252 192 167 210 166 131 289 44 128 170 50 28 346 208 166 151 156 163 165 159 153 153 151 152 156 153 148 148 152 156 153 151 153 149 143 144 139 129 120 113 112 99 88 84 73 63 58 51 46 41 34 32 32 34 35 33 32 31 30 30 28 28 29 28 25 21
352 303 297 295 292 294 50 129 263 272 302 305 288 277 251 233 179 293 274 256 293 301 221 187 46 232 290 342 31 91 111 136 251 225 147 146 162 156 153 155 150 149 151 153 154 149 147 151 157 159 155 154 154 146 138 137 130 124 119 112 100 83 76 77 74 70 63 55 50 44 37 35 34 35 37 35 34 32 30 31 30 30 32 29 25 26
344 291 276 285 293 287 164 148 265 297 334 302 283 304 297 287 238 235 279 319 331 327 355 78 49 256 282 333 348 58 134 166 242 260 111 138 168 150 149 155 152 149 151 154 153 147 149 157 162 160 157 156 150 142 138 135 132 129 120 112 105 92 81 78 76 73 67 60 54 47 41 38 35 36 38 36 35 34 32 33 34 35 34 30 26 29
321 285 281 291 295 277 223 32 338 343 352 318 310 318 310 309 295 267 294 321 291 337 49 114 166 233 243 309 305 307 120 141 121 65 106 144 159 140 148 156 150 148 151 156 157 151 155 164 165 161 160 157 149 144 142 136 135 134 123 116 112 101 89 82 75 71 68 63 58 49 43 40 37 37 38 36 36 36 34 36 38 37 35 32 31 33
276 292 295 295 303 302 324 359 323 299 312 303 303 302 299 308 310 304 299 291 321 342 329 104 156 226 225 262 278 310 20 105 117 90 100 140 140 130 147 159 152 152 156 160 159 155 162 171 165 162 161 155 150 148 146 144 142 136 127 121 116 108 98 87 78 73 68 63 59 52 46 42 39 37 37 37 38 37 37 38 39 40 37 34 35 35
292 287 285 279 286 293 289 287 276 276 288 287 283 280 283 303 318 332 321 303 331 328 317 137 187 219 206 227 237 196 136 213 149 108 99 105 121 130 149 162 157 154 156 162 161 158 170 175 162 158 157 151 151 153 152 150 143 136 133 128 119 111 103 94 87 81 71 65 61 54 49 45 41 39 39 39 40 40 40 41 42 42 40 37 38 35
278 275 277 277 279 279 278 283 282 268 270 276 276 273 274 286 293 297 294 291 290 288 289 178 228 258 189 197 203 170 156 185 165 139 128 133 151 151 152 159 161 158 159 167 167 165 175 175 155 151 150 148 152 156 153 147 140 139 141 133 123 117 112 106 99 89 77 69 63 57 52 48 43 42 41 41 43 44 43 43 44 43 42 41 39 36
265 267 271 274 277 278 281 289 286 268 264 276 286 292 297 285 271 262 259 277 285 279 285 287 266 290 294 185 163 143 164 187 185 158 136 135 154 161 157 161 163 164 170 174 171 172 177 170 153 149 148 151 156 157 151 143 141 143 140 130 125 122 119 115 106 97 87 75 66 60 56 52 48 46 45 44 46 46 46 45 45 45 44 43 40 37
284 277 289 289 286 285 284 282 280 278 278 284 294 311 324 317 309 318 316 292 292 292 298 318 301 301 333 127 149 160 174 190 214 152 139 145 159 161 160 165 168 174 182 180 176 177 177 167 157 153 152 156 161 157 149 145 146 146 137 130 127 125 124 121 113 102 92 82 72 65 61 56 53 49 47 47 48 48 49 47 46 46 45 43 41 39
294 319 334 329 316 304 295 286 283 286 288 292 299 311 325 327 327 339 331 294 290 301 307 324 321 317 46 122 155 172 171 181 190 148 145 152 159 163 167 173 179 184 186 182 178 179 177 167 160 158 158 161 162 156 149 148 148 143 136 134 133 131 129 123 113 105 96 89 80 72 66 61 57 52 49 49 50 50 50 48 48 48 46 45 42 39
254 296 321 318 303 297 298 301 302 300 296 294 297 296 298 307 310 304 296 295 306 311 304 302 301 308 91 130 161 161 157 173 160 144 137 108 121 159 173 179 188 187 180 179 179 180 179 169 162 162 163 163 162 157 153 149 145 142 140 138 133 129 126 121 117 112 103 94 83 76 71 65 61 56 51 50 51 52 51 50 50 49 47 46 43 39
271 283 294 279 269 275 297 317 320 314 301 291 300 296 284 300 311 300 301 313 315 307 294 285 295 326 35 63 128 136 135 146 154 158 147 97 90 130 170 181 198 191 176 175 179 182 179 169 165 165 162 162 163 159 154 149 145 143 142 136 130 128 127 125 122 116 108 100 89 81 76 69 66 60 54 52 52 52 52 51 51 49 48 48 45 41
230 251 268 263 264 268 276 306 314 296 278 276 329 311 284 291 303 302 307 310 304 305 306 293 299 320 338 83 92 113 114 78 163 168 157 124 112 142 192 197 217 207 178 173 179 181 175 165 163 163 161 162 162 155 151 147 143 141 138 134 133 134 132 129 125 119 113 106 97 90 82 74 70 63 57 56 55 53 52 51 51 49 48 49 48 45
194 228 257 255 263 269 252 236 252 258 265 274 251 254 265 275 286 293 298 298 301 312 314 315 337 347 358 67 97 138 122 67 343 169 164 148 143 166 193 197 221 218 178 170 177 175 165 159 159 160 161 159 155 150 147 143 140 139 139 138 138 136 134 131 126 121 116 110 104 98 89 79 73 68 62 60 58 56 53 50 51 50 49 51 51 50
190 209 237 238 247 262 250 225 235 257 266 250 217 234 264 271 276 286 290 294 305 312 315 326 340 4 85 78 61 90 103 100 289 228 161 152 155 174 186 192 213 205 168 165 170 164 159 158 157 158 158 153 150 150 147 144 143 143 142 141 140 137 136 133 127 123 121 118 113 106 98 88 79 72 67 64 61 58 54 50 50 51 51 53 55 54
214 212 244 252 238 250 256 248 252 264 256 231 216 206 214 239 266 309 305 298 302 300 311 326 320 315 95 107 110 94 67 319 269 245 168 151 165 193 195 209 210 173 155 160 161 156 155 155 155 155 152 148 150 151 147 146 146 144 143 143 141 139 137 134 130 129 128 123 116 110 103 95 86 78 71 68 62 57 55 51 49 52 54 56 57 56
215 168 160 233 249 255 259 258 263 264 254 250 247 209 194 220 342 30 331 296 298 299 302 301 300 341 28 24 85 94 32 307 287 242 181 161 178 209 262 275 208 152 151 157 156 151 150 149 152 152 148 147 150 149 147 147 147 144 144 144 142 141 140 136 135 135 131 126 121 115 108 101 93 86 76 70 65 60 56 52 48 51 56 60 61 60
208 117 107 130 250 266 268 268 266 260 264 280 279 148 142 138 96 76 302 282 284 304 306 288 296 50 62 28 34 91 256 277 288 252 150 154 168 171 227 261 180 144 150 157 154 149 146 146 149 149 147 148 148 146 147 149 147 145 145 145 144 143 141 139 139 137 133 128 123 115 108 102 95 89 81 73 68 63 58 55 52 51 54 59 61 60
198 95 98 187 230 236 252 271 268 264 282 290 207 147 141 129 107 94 294 283 272 279 311 342 341 36 86 123 231 224 253 290 302 159 144 154 168 178 210 222 145 139 149 152 149 145 143 145 148 149 150 148 145 146 149 148 146 145 145 146 146 142 139 140 138 135 131 126 121 115 109 105 98 92 88 80 73 69 63 60 59 57 57 58 60 60
212 157 164 225 239 228 228 253 267 275 298 289 207 165 139 119 107 124 243 246 267 268 308 359 334 352 92 186 260 318 340 2 5 110 151 157 163 178 189 156 136 142 148 145 143 142 142 145 149 150 149 146 145 147 149 147 145 145 146 146 143 139 139 140 137 133 130 127 123 119 113 109 104 97 92 86 80 76 70 66 64 63 62 61 61 62
222 175 192 227 249 242 229 249 279 284 309 311 282 132 129 142 158 210 246 187 246 258 273 316 298 326 7 6 19 14 11 37 30 353 184 156 150 157 158 144 143 145 141 138 140 142 143 146 148 147 145 145 147 148 148 147 145 146 146 142 139 139 140 139 136 135 133 130 126 122 118 116 113 105 98 92 87 81 75 71 68 65 66 67 66 64
184 175 233 233 240 241 213 194 251 250 284 321 337 127 161 230 295 10 4 274 264 273 256 212 244 319 59 61 59 41 32 68 67 328 280 143 142 151 152 148 145 140 136 139 145 147 146 146 146 144 144 146 149 149 148 147 146 145 144 141 140 143 142 140 139 138 135 131 127 124 123 122 118 110 104 97 92 87 81 74 69 64 63 66 68 66
154 168 254 247 226 233 216 203 234 238 182 272 281 169 204 259 345 13 2 301 277 287 282 258 279 220 157 134 97 71 38 72 84 356 331 150 155 157 151 142 136 136 140 146 151 150 146 144 142 142 145 148 149 149 148 148 147 145 144 144 145 146 144 143 143 138 134 132 131 130 129 126 120 116 112 105 97 91 85 80 75 69 64 62 63 67
188 142 297 279 252 257 261 261 294 326 356 48 6 325 253 255 290 28 24 354 300 306 316 305 301 254 143 126 118 115 69 66 69 3 302 196 170 161 154 142 136 142 148 151 151 148 144 142 141 142 146 149 148 147 149 150 148 146 146 147 148 148 147 146 143 138 136 137 136 135 134 129 126 122 117 111 103 93 87 84 77 69 66 62 57 59
311 58 12 313 308 299 287 290 305 303 286 256 229 244 246 256 56 45 19 322 295 304 318 319 318 18 117 120 128 142 149 133 124 179 238 210 177 159 148 139 142 150 153 151 148 145 142 140 141 143 146 147 147 148 150 152 151 148 148 150 151 151 150 146 142 141 142 141 140 141 138 133 130 128 120 112 104 93 83 78 73 68 66 62 54 53
306 26 6 287 308 327 303 294 296 290 281 268 245 239 242 253 311 307 272 276 288 315 352 357 346 345 118 141 151 161 163 156 155 184 209 199 176 155 140 141 152 158 155 151 148 144 142 142 144 146 146 145 149 150 150 151 152 150 150 152 153 153 150 146 145 146 146 144 144 145 142 139 137 130 119 108 102 94 80 69 71 83 79 70 60 55
319 8 350 287 274 282 278 282 290 292 288 279 266 258 263 270 276 262 238 245 269 352 38 29 2 345 339 227 195 179 166 154 150 182 214 195 173 151 142 153 161 156 151 151 148 144 144 146 147 148 148 148 151 153 151 152 153 152 153 154 154 153 151 149 149 150 148 148 150 148 146 148 144 128 114 110 108 102 89 78 81 92 89 79 68 62
290 308 305 288 283 278 275 282 300 319 317 310 305 306 315 314 302 284 263 258 295 53 37 7 346 3 331 289 273 241 160 144 144 178 213 198 175 157 156 163 163 155 153 154 150 147 149 150 150 150 151 151 153 154 154 154 155 155 156 156 155 155 153 152 153 153 151 153 154 150 150 154 146 128 123 124 117 106 97 91 93 98 95 85 75 71
275 267 274 282 279 272 272 281 308 334 320 313 315 320 336 342 323 304 292 284 260 111 97 280 265 212 302 294 297 295 194 164 168 189 210 203 180 168 168 167 160 156 157 154 150 150 152 151 152 152 152 153 155 155 155 155 156 158 158 158 158 157 155 155 155 155 156 158 156 153 156 158 145 129 130 134 126 113 105 99 100 104 101 92 83 81
262 267 274 273 266 270 277 283 297 306 286 278 294 306 318 325 317 313 309 301 284 164 175 209 222 226 38 355 321 299 258 179 198 207 206 199 182 171 171 169 161 158 159 156 152 152 152 152 155 154 153 155 157 157 157 157 158 161 161 160 160 159 157 158 158 158 161 162 159 158 161 159 146 134 132 135 132 124 116 109 104 103 102 100 98 96